Terug naar catalogus

FENGYUN 1C DEB

ActiefPO
NORAD 29880·DEBRIS·🇨🇳 China

Gelanceerd May 10, 1999 vanaf Taiyuan Satellite Launch Center

Loading…

Volgende Passages (komende 24 uur)

TLE

VersSource: Space-Track

Epoch: Sep 14, 2026, 04:54 UTC

1 29880U 99025GA  26257.20448947  .00001012  00000-0  62456-3 0  9992
2 29880  98.1801 150.0613 0231567  49.2501  99.9053 13.94801364994014

Volg FENGYUN 1C DEB in realtime met AllMySat

Download on the App Store